Location: Altenhof
(50.2418°N, 10.8789°E)
Time: 14:55:31
(UTC+00:00)

ADEOS - Pass Details

Date: 18 February 2020
Orbit: 793 x 794 km, 98.9° (Epoch: 27 March)

Event Time Altitude Azimuth Distance (km) Brightness Sun altitude
Rises 03:48:22 0° 13° (NNE) 3,309 7.1 -25.3°
Reaches altitude 10° 03:50:43 10° 11° (N) 2,375 6.3 -24.9°
Maximum altitude 03:55:55 67° 290° (WNW) 861 3.5 -24.1°
Enters shadow 03:56:20 64° 260° (W) 879 3.4 -24.1°
